{"data":{"norad_id":66671,"intl_designator":"2025-276F","name":"ANISCSAT-1","alt_names":[],"object_type":"PAYLOAD","status":"ACTIVE","operator":null,"country":"AZER","launch_date":"2025-11-28","launch_site_code":"AFWTR","launch_vehicle":null,"mission":null,"orbit_class":"UNKNOWN","rcs_meters":null,"size_class":null,"mass_kg":null,"dimensions":null,"purposes":[],"wikipedia_slug":null,"has_3d_model":false,"image_url":null,"decayed_at":null,"tle_current":{"epoch":"2026-09-20T22:42:55.739808Z","epoch_age_seconds":82400,"freshness":"FRESH","line1":"1 66671U 25276F   26263.94647847  .00007139  00000+0  30386-3 0  9998","line2":"2 66671  97.4129 336.4651 0006040  37.4281 322.7375 15.23281211 45007","mean_motion":15.23281211,"eccentricity":0.000604,"inclination_deg":97.4129,"raan_deg":336.4651,"arg_perigee_deg":37.4281,"mean_anomaly_deg":322.7375,"bstar":0.00030386,"rev_number":4500,"period_min":94.532775012348,"perigee_km":491.79952942955,"apogee_km":500.10342831203,"semimajor_km":6874.0884788708,"source":"CELESTRAK","updated_at":"2026-09-21T09:00:16.120362Z"}}}